Flag for U.S.A. Weather past 2 weeks in Scranton, Pennsylvania, U.S.A.

Now
32 °F

Clear.


Feels Like: 24 °F
Forecast: 30 / 38 °F
Wind: 9 mph from Southwest

Location: Barre - Scranton - Wilkes-Barre / Scranton International Airport

Current Time: Dec 29, 2014 at 6:05:28 AM

Latest Report: Dec 29, 2014 at 4:54 AM


Visibility: 10 mi

Pressure: 30.14 "Hg

Humidity: 66%

Dew point: 22 °F

Location of ScrantonLocation

Historic Weather in Scranton — Graph

°F

Scranton temperature yesterday

Maximum temperature yesterday: 49 °F (at 1:54 AM)
Minimum temperature yesterday: 35 °F (at 11:54 PM)
Average temperature yesterday: 44 °F

Past Weeks' High & Low Weather Summary

 TemperatureHumidityPressure
High61 °F (Dec 25, 12:54 AM)93% (Dec 17, 12:54 AM)30.34 "Hg (Dec 17, 12:54 AM)
Low29 °F (Dec 19, 8:54 PM)43% (Dec 28, 1:54 AM)29.43 "Hg (Dec 25, 12:54 AM)
Average39 °F72%30.05 "Hg
* Reported Dec 14 4:54 AM — Dec 29 4:54 AM, Scranton, Weather by CustomWeather, © 2014

Note: Actual official high and low records may vary slightly from our data, if they occured in-between our weather recording intervals... More about our weather records

Advertising

Scranton weather history for previous 24 hours

 ConditionsComfort  
Time TempWeatherWind HumidityBarometerVisibility
4:54 AM
Dec 29
32 °FClear.9 mph66%30.14 "Hg10 mi
3:54 AM33 °FClear.N/A61%30.13 "Hg10 mi
2:54 AM33 °FClear.7 mph61%30.13 "Hg10 mi
1:54 AM33 °FClear.5 mph63%30.11 "Hg10 mi
12:54 AM35 °FClear.3 mph61%30.11 "Hg10 mi
11:54 PM
Dec 28
35 °FClear.10 mph61%30.10 "Hg10 mi
10:54 PM36 °FClear.15 mph62%30.09 "Hg10 mi
9:54 PM37 °FOvercast.15 mph65%30.07 "Hg10 mi
8:54 PM38 °FOvercast.12 mph70%30.05 "Hg10 mi
7:54 PM39 °FOvercast.12 mph70%30.03 "Hg10 mi
6:54 PM40 °FPassing clouds.8 mph70%30.01 "Hg10 mi
5:54 PM42 °FOvercast.No wind62%29.99 "Hg10 mi
4:54 PM42 °FPassing clouds.6 mph65%29.98 "Hg10 mi
3:54 PM43 °FPartly sunny.8 mph65%29.97 "Hg10 mi
2:54 PM43 °FMore clouds than sun.12 mph71%29.94 "Hg10 mi
1:54 PM44 °FOvercast.15 mph68%29.90 "Hg10 mi
12:54 PM46 °FOvercast.10 mph71%29.91 "Hg10 mi
11:54 AM47 °FOvercast.14 mph71%29.92 "Hg10 mi
10:54 AM47 °FOvercast.7 mph77%29.90 "Hg10 mi
9:54 AM46 °FOvercast.7 mph73%29.91 "Hg10 mi
8:54 AM45 °FMostly cloudy.6 mph74%29.90 "Hg10 mi
7:54 AM43 °FMore clouds than sun.7 mph79%29.89 "Hg10 mi
6:54 AM47 °FLight rain. Mostly cloudy.7 mph69%29.86 "Hg10 mi
6:04 AM46 °FMostly cloudy.10 mph63%29.90 "Hg10 mi
Weather by CustomWeather, © 2014

See weather overviewHow to use our weather pages